Preview of NWS' New Version of Forecast
This preview is not operational and should not be used for support decisions.

Regional Weather Roundup (RWR)

Issued by National Weather Service (NWS)

                            
000
ASUS45 KABQ 262101
RWRNM 
NEW MEXICO REGIONAL WEATHER ROUNDUP
NATIONAL WEATHER SERVICE ALBUQUERQUE NM
300 PM MDT TUE MAR 26 2019

NOTE: "FAIR" MEANS FEW OR NO CLOUDS BELOW 12,000 FEET AGL WITH NO
       SIGNIFICANT WEATHER OR OBSTRUCTIONS TO VISION.

      THIS PRODUCT IS RELEASED AS TWO VERSIONS.  ONE VERSION NEAR
      THE TOP OF THE HOUR CONTAINING PRELIMINARY DATA FROM ALBUQUERQUE
      AND OTHER STATIONS.  A FINAL VERSION WITH ADDITIONAL DATA IS 
      ISSUED ABOUT 10 MINUTES AFTER THE HOUR.
 
NMZ501-503-504-510>518-262200-
NORTHWEST PLATEAU/NORTHCENTRAL MOUNTAINS
  
CITY           SKY/WX    TMP DP  RH WIND       PRES   REMARKS
FARMINGTON     FAIR      69  15  12 S7        30.11F                  
LOS ALAMOS     FAIR      61  16  17 S8        30.26F                  
SANTA FE       FAIR      68  18  14 SE16G23   30.20F                  
TAOS           FAIR      64  13  13 SW17G23   30.26F                  
ANGEL FIRE       N/A     56  19  23 W21       30.29F                  

$$
NMZ402-403-502-505>509-262200-
WESTCENTRAL MOUNTAINS/SOUTHWEST MOUNTAINS
  
CITY           SKY/WX    TMP DP  RH WIND       PRES   REMARKS
GALLUP         FAIR      73  17  12 SW12      30.14F                  
GRANTS         FAIR      70  18  13 SE14G22   30.18F                  
SILVER CITY    FAIR      74  31  21 SE15G21   30.16F                  

$$
NMZ407-409-411-412-262200-
SOUTHERN DESERTS
  
CITY           SKY/WX    TMP DP  RH WIND       PRES   REMARKS
DEMING         FAIR      79  32  18 S13       30.08F                  
LAS CRUCES     FAIR      80  43  26 SE16      30.11F                  
HOLLOMAN AFB   PTSUNNY   79  36  21 SE18G24   30.11F                  
ALAMOGORDO     FAIR      77  34  20 S21G26    30.11F                  
T OR C         FAIR      75  31  19 VRB3      30.12F                  

$$
NMZ519>523-262200-
CENTRAL VALLEYS/CENTRAL HIGHLANDS
  
CITY           SKY/WX    TMP DP  RH WIND       PRES   REMARKS
ALBUQUERQUE    PTSUNNY   72  24  16 S13G23    30.16F                  
DOUBLE EAGLE   PTSUNNY   72  27  18 S13G20    30.19F                  
MORIARTY ARPT  FAIR      71  20  14 S13       30.22F                  
CLINES CORNERS FAIR      65  25  22 S15G22    30.26F                  
BELEN          FAIR      75  24  15 S12G23    30.15F                  
SOCORRO        NOT AVBL                                               

$$
NMZ524>526-539-540-262200-
SOUTHCENTRAL MOUNTAINS
  
CITY           SKY/WX    TMP DP  RH WIND       PRES   REMARKS
RUIDOSO        FAIR      64  36  34 SE17G25   30.28F                  

$$
NMZ527>531-262200-
NORTHEAST HIGHLANDS/NORTHEAST PLAINS
  
CITY           SKY/WX    TMP DP  RH WIND       PRES   REMARKS
LAS VEGAS      FAIR      63  18  17 S17G26    30.25F                  
RATON          FAIR      69  29  22 S20G28    30.16F                  
CLAYTON        FAIR      67  39  35 SW23G33   30.17F                  

$$
NMZ532>537-262200-
EASTCENTRAL PLAINS
  
CITY           SKY/WX    TMP DP  RH WIND       PRES   REMARKS
SANTA ROSA     FAIR      67  44  43 S17G23    30.21F                  
TUCUMCARI      FAIR      73  45  36 S15G26    30.17F                  
CANNON AFB     NOT AVBL                                               
CLOVIS AIRPORT   N/A     68  47  46 S21       30.24F                  

$$
NMZ028-029-538-262200-
SOUTHEAST PLAINS
  
CITY           SKY/WX    TMP DP  RH WIND       PRES   REMARKS
ROSWELL        FAIR      74  46  36 SE15G23   30.17F                  
ARTESIA        FAIR      73  48  40 SE18G25   30.17F                  
CARLSBAD       FAIR      74  48  39 SE15G22   30.15F                  
HOBBS          MOSUNNY   72  46  40 SE17G25   30.21F                  


$$